Home   Weather   Mostar   Past weeks
Flag for Bosnia-Herzegovina

Past Weather in Mostar, Bosnia-Herzegovina — Yesterday and Last 2 Weeks

Now
46 °F

Clear.


Feels Like: 46 °F
Forecast: 78 / 54 °F
Wind: 1 mph from North

Location: Mostar

Current Time: Oct 23, 2019 at 4:45:15 am

Latest Report: Oct 23, 2019 at 4:00 am


Visibility: 10 mi

Pressure: 30.12 "Hg

Humidity: 87%

Dew Point: 43 °F

Location of MostarLocation

Past Weather in Mostar — Graph

°F

Mostar Temperature Yesterday

Maximum temperature yesterday: 82 °F (at 3:00 pm)
Minimum temperature yesterday: 45 °F (at 5:00 am)
Average temperature yesterday: 63 °F

High & Low Weather Summary for the Past Weeks

 TemperatureHumidityPressure
High82 °F (Oct 22, 3:00 pm)100% (Oct 14, 8:00 am)30.24 "Hg (Oct 14, 8:00 am)
Low41 °F (Oct 9, 7:00 am)27% (Oct 8, 3:00 pm)29.92 "Hg (Oct 8, 3:00 am)
Average61 °F71%30.10 "Hg
* Reported Oct 8 3:00 am — Oct 23 3:00 am, Mostar. Weather by CustomWeather, © 2019

Note: Actual official high and low records may vary slightly from our data, if they occured in-between our weather recording intervals... More about our weather records

Advertising

Mostar Weather History for the Previous 24 Hours

Scroll right to see more
 ConditionsComfort  
Time TempWeatherWind HumidityBarometerVisibility
3:00 am
Wed, Oct 23
46 °FClear.1 mph93%30.12 "Hg10 mi
2:00 am48 °FClear.1 mph94%30.12 "Hg10 mi
1:00 am48 °FClear.2 mph82%30.12 "Hg10 mi
12:00 am50 °FClear.1 mph88%30.09 "Hg10 mi
11:00 pm
Tue, Oct 22
52 °FClear.1 mph82%30.09 "Hg10 mi
10:00 pm54 °FClear.3 mph82%30.12 "Hg10 mi
9:00 pm59 °FClear.1 mph72%30.09 "Hg10 mi
8:00 pm63 °FClear.2 mph64%30.09 "Hg10 mi
7:00 pm68 °FClear.3 mph53%30.09 "Hg10 mi
6:00 pm72 °FClear.2 mph47%30.09 "Hg10 mi
5:00 pm82 °FSunny.5 mph30%30.09 "Hg10 mi
4:00 pm82 °FSunny.2 mph30%30.09 "Hg10 mi
3:30 pm82 °FPassing clouds.3 mph30%30.09 "HgN/A
3:00 pm82 °FSunny.2 mph30%30.09 "Hg10 mi
2:30 pm81 °FSunny.2 mph30%30.09 "Hg10 mi
2:00 pm81 °FSunny.3 mph28%30.12 "Hg10 mi
1:30 pm79 °FSunny.3 mph32%30.12 "Hg10 mi
1:00 pm75 °FSunny.2 mph36%30.15 "Hg10 mi
12:30 pm73 °FSunny.2 mph41%30.15 "Hg10 mi
12:00 pm70 °FSunny.2 mph46%30.18 "Hg10 mi
11:00 am66 °FSunny.2 mph52%30.18 "Hg10 mi
10:00 am59 °FSunny.2 mph72%30.18 "Hg10 mi
9:00 am52 °FClear.1 mph88%30.18 "HgN/A
8:00 am45 °FRain. Fog.2 mph93%30.18 "HgN/A
7:00 am45 °FRain. Fog.1 mph93%30.15 "HgN/A
6:00 am45 °FClear.2 mph93%30.15 "Hg10 mi
5:00 am45 °FClear.2 mph87%30.15 "Hg10 mi
4:00 am46 °FClear.1 mph87%30.15 "Hg10 mi
Weather by CustomWeather, © 2019

See weather overview